Location: Unspecified
(0.0000°N, 0.0000°E)
Time: 09:00:21
(UTC+02:00)

Cosmos 2237 Rocket - Visible Passes

Search period start: 24 June 2017 00:00
Search period end: 04 July 2017 00:00
Orbit: 836 x 849 km, 71.0° (Epoch: 23 June)

Date Brightness Start Highest point End Pass type
(mag) Time Alt. Az. Time Alt. Az. Time Alt. Az.
24 Jun 4.6 22:57:18 10° N 22:58:08 15° N 22:58:08 15° N visible
25 Jun 4.2 22:42:29 10° N 22:44:08 20° N 22:44:08 20° N visible
26 Jun 3.7 22:27:40 10° N 22:30:13 28° N 22:30:13 28° N visible
27 Jun 3.1 22:12:52 10° N 22:16:22 38° NNE 22:16:22 38° NNE visible
28 Jun 2.5 21:58:03 10° N 22:02:34 50° NE 22:02:34 50° NE visible
29 Jun 2.3 21:43:16 10° N 21:48:43 53° ENE 21:48:50 53° E visible
30 Jun 2.4 21:28:29 10° N 21:33:53 49° ENE 21:35:09 42° ESE visible
30 Jun 5.0 23:16:42 10° W 23:17:02 10° W 23:17:02 10° W visible
01 Jul 2.5 21:13:42 10° N 21:19:03 46° ENE 21:21:33 28° SE visible
01 Jul 4.8 23:01:07 10° W 23:02:51 11° WSW 23:03:27 11° WSW visible
02 Jul 2.6 20:58:55 10° N 21:04:13 43° ENE 21:08:00 18° SE visible
02 Jul 4.8 22:45:47 10° W 22:48:00 12° WSW 22:49:54 11° SW visible
03 Jul 2.7 20:44:09 10° N 20:49:23 40° ENE 20:54:31 11° SE visible
03 Jul 4.8 22:30:33 10° WNW 22:33:10 13° WSW 22:35:48 10° SW visible
